IRIDE-MS1-EAG2-16

导读

IRIDE-MS1-EAG2-16(NORAD编号68452)是意大利IRIDE鹰眼II地球观测星座的组成卫星,由意大利航天局主导,欧洲航天局参与支持。该卫星配备多光谱光学传感器,可获取高分辨率地球表面影像,同时搭载自动识别系统支撑船舶交通监测,数据服务于意大利沿海监测、土地利用分析及应急制图等公共服务。IRIDE星座是意大利国家航天计划核心项目,旨在提升该国地球观测能力,服务环境监测、灾害管理与国土安全领域,该卫星的入轨推动星座逐步迈向全面运营状态。

基本信息
目录编号:
68452
目录名称:
IRIDE-MS1-EAG2-16
国际标识:
2026-067AN
轨道中心:
EARTH
卫星名称:
IRIDE-MS1-EAG2-16
卫星全名:
IRIDE-MS1-EAG2-16
卫星状态:
在轨 (已飞行165 天)
发射日期:
2026-03-30 UTC
国别 :
意大利 (IT)
星等 :
--
轨道信息
数据来源 国际轨道数据
星历时间: 2026-09-10T18:17:13+0800
16小时前
查看轨道信息
半长轴: 6886.899km
偏心率: 0.0005836
轨道倾角: 97.463°
近地点辐角 111.822°
升交点赤经 210.700°
平近点角 248.364°
近地点: 504.742km
远地点: 512.782km
周期: 94.797分钟
每日圈数: 15.190331
详细信息
使用方式:
暂无
2D轨道图
3D轨道图
轨道高度分析图
轨道倾角分析图
轨道综合分析图
查看轨道综合分析图
交会数据列表
事件ID 空间交会对象 最接近时刻(TCA) 交会距离 交会风险概率(CRP) 交会风险指数(CRI) 操作
CDM_260912-122805-922406-845223
STRIX-3 (59224)
2026-09-12T
12:28:21+0000
0.696 km
远距离
2.768047E-5 中风险 0.64
CDM_260906-210705-875906-845223
2026-09-06T
21:07:42+0000
2.331 km
极远距离
1.629695E-6 低风险 0.39
与全量物体交会距离演化趋势
与全量物体交会风险概率演化趋势